Location: Chilton Park
(37.7711°N, 100.0276°W)
Time: 00:42:26
(UTC+00:00)

Daily predictions for brighter satellites

Satellite Brightness Start Highest point End
(mag) Time Altitude Azimuth Time Altitude Azimuth Time Altitude Azimuth
CZ-4 R/B 2.1 02:26:29 10° S 02:30:19 54° W 02:34:16 10° NNW
CZ-4B R/B 3.2 02:26:20 10° SSE 02:31:36 85° ENE 02:36:57 10° NNW
Cosmos 1328 Rocket 3.6 02:29:17 10° S 02:33:34 84° W 02:37:53 10° N
Cosmos 1842 3.7 02:35:53 10° SSE 02:39:16 38° E 02:42:40 10° NNE
Cosmos 2285 Rocket 4.3 02:34:28 10° SSW 02:40:47 74° WNW 02:47:11 10° NNE
Cosmos 2251 Rocket 4.0 02:35:44 10° SSW 02:40:58 68° WNW 02:46:17 10° NNE
Cosmos 1066 Rocket 4.3 02:36:14 10° S 02:42:05 83° E 02:47:54 10° N
Cosmos 407 Rocket 4.5 02:41:09 10° SW 02:46:14 53° WNW 02:51:18 10° N
Cosmos 540 Rocket 4.2 02:45:04 10° N 02:49:49 36° ENE 02:54:15 11° SE
Cosmos 1626 4.3 02:52:30 10° SW 02:55:07 23° WNW 02:57:44 10° NNW
USA 186 3.7 02:54:58 10° SSW 02:57:56 30° W 03:00:56 10° NNW
Cosmos 2082 Rocket 3.1 02:52:40 10° SW 02:58:13 54° WNW 03:03:49 10° NNE
SL-16 R/B 3.6 02:54:24 10° N 02:58:57 24° ENE 03:03:14 11° ESE
Cosmos 2333 Rocket 4.4 02:58:28 10° NNE 03:00:33 12° NE 03:02:39 10° ENE
Cosmos 1954 Rocket 4.0 02:57:39 10° SSW 03:02:57 83° ESE 03:08:14 10° NNE
Okean-O 2.7 02:58:43 10° SSE 03:03:00 61° ENE 03:07:22 10° N
Cosmos 2369 3.7 02:57:23 10° NNW 03:03:09 84° ENE 03:08:35 11° SSE
MOS 1-B Rocket 4.2 02:57:17 10° S 03:03:37 73° WSW 03:09:20 10° NNW
Cosmos 1707 2.5 03:00:38 10° S 03:04:12 63° E 03:07:46 10° NNE
Cosmos 1515 Rocket 3.6 03:01:12 10° S 03:05:30 84° W 03:09:51 10° N
SeaSat 1 3.8 03:02:21 11° ESE 03:06:07 27° NE 03:10:11 10° N
Atlas Centaur 2 3.3 02:58:59 10° WSW 03:06:39 51° S 03:14:19 11° ESE
PSLV R/B 4.1 03:03:31 10° S 03:07:01 57° W 03:10:29 10° NNW
Cosmos 1633 Rocket 4.2 03:06:13 10° NNW 03:10:23 44° W 03:14:30 10° SSW
CZ-4C R/B 3.3 03:08:38 10° NNE 03:12:47 75° ESE 03:16:52 10° S
Cosmos 676 Rocket 4.0 03:08:41 10° SSW 03:14:00 85° ESE 03:19:19 10° NNE
SPOT 5 2.7 03:14:17 16° SSE 03:17:34 58° ENE 03:21:51 10° N
Cosmos 2228 Rocket 4.5 03:18:36 18° ESE 03:20:21 22° E 03:23:53 10° NE
MetOp-B 4.2 03:16:27 15° SSE 03:20:55 67° ENE 03:26:14 10° N
Tiangong -2.2 03:17:49 10° WNW 03:20:59 86° NNE 03:22:45 24° ESE
Okean O Rocket 2.9 03:19:05 10° SSW 03:23:11 38° W 03:27:17 10° NNW
Cosmos 1470 Rocket 4.3 03:20:39 10° NNW 03:24:51 50° W 03:29:00 10° SSW
ASTRO E2 4.0 03:23:38 10° SSW 03:25:30 17° S 03:25:30 17° S
Cosmos 1553 Rocket 4.0 03:20:57 10° N 03:27:11 88° E 03:33:03 12° S
Cosmos 1869 Rocket 4.0 03:23:37 10° N 03:27:54 45° E 03:30:17 23° SE
S3M 4.4 03:24:29 10° N 03:30:38 49° E 03:34:41 21° SE
Cosmos 1400 Rocket 3.0 03:28:43 22° SSE 03:30:59 49° E 03:34:43 10° NNE
Cosmos 1674 4.5 03:28:11 10° SW 03:31:13 28° WNW 03:34:15 10° NNW
ERS-1 Rocket 3.2 03:30:44 22° SE 03:33:52 55° ENE 03:38:47 10° N
Cosmos 2266 Rocket 4.0 03:30:54 11° S 03:36:50 68° E 03:43:12 10° NNE
Cosmos 1655 Rocket 4.4 03:34:27 19° SSE 03:38:47 48° E 03:44:53 10° NNE
ATLAS CENTAUR R/B 0.9 03:36:30 16° SSW 03:39:03 55° ESE 03:42:31 10° NE
Cosmos 841 Rocket 4.1 03:34:18 10° N 03:39:20 44° ENE 03:41:59 25° SE
Cosmos 1980 Rocket 3.5 03:35:20 10° NW 03:40:23 34° WSW 03:45:24 10° SSW
Cosmos 1763 Rocket 4.1 03:36:00 10° NNW 03:41:03 51° WSW 03:45:08 15° S
Cosmos 2322 Rocket 3.2 03:36:56 10° N 03:42:02 33° ENE 03:44:58 21° ESE
Timation 1 Rocket 4.2 03:36:22 10° SSW 03:42:18 80° ESE 03:48:17 10° NNE
Cosmos 1300 3.9 03:39:59 10° NNE 03:42:52 23° ENE 03:43:15 22° E
Cosmos 1441 Rocket 3.0 03:40:07 10° N 03:43:44 84° W 03:45:26 30° S
Spot 2 Rocket 3.8 03:42:27 26° SE 03:45:04 52° ENE 03:49:59 10° N
Cosmos 1933 Rocket 4.1 03:44:44 10° NNW 03:49:05 55° W 03:52:17 17° SSW
USA 234 3.7 03:44:52 10° NE 03:51:19 63° NW 03:57:44 10° WSW
Cosmos 1908 3.5 03:48:09 10° NNW 03:51:42 58° W 03:53:29 26° SSW
Resurs 01 Rocket 4.3 03:50:14 10° SW 03:52:33 14° W 03:54:52 10° WNW
Cosmos 2278 3.7 03:48:16 10° NNW 03:54:00 87° ENE 03:57:04 29° SSE
Meteor 2-10 Rocket 3.9 03:48:46 10° N 03:54:11 53° ENE 03:56:28 31° SE
Cosmos 1862 Rocket 4.1 03:55:14 34° ESE 03:56:08 38° E 04:00:14 10° NNE
Terra 1.7 03:54:54 31° SSE 03:57:08 80° ENE 04:01:51 10° N
Cosmos 1470 4.4 03:58:30 10° NNW 04:01:40 27° W 04:04:12 14° SW
Landsat 5 3.7 04:01:36 10° NNE 04:05:31 45° E 04:05:57 43° ESE
Cosmos 2219 Rocket 3.8 04:03:09 10° N 04:07:28 22° NE 04:09:56 17° E
SL-27 R/B 2.6 04:09:25 47° NNE 04:09:25 47° NNE 04:11:30 10° NNE
Okean 3 3.8 04:08:31 41° ESE 04:08:47 41° E 04:12:42 10° NNE
Cosmos 2237 4.2 04:03:50 10° NNW 04:09:34 79° WSW 04:12:12 34° SSE
Ariane Rocket 2.9 04:07:33 35° SSE 04:09:45 85° ENE 04:14:51 10° NNW
SL-14 R/B 3.1 04:12:43 46° SSW 04:13:44 80° W 04:17:32 10° N
Cosmos 1707 Rocket 3.5 04:15:11 43° S 04:16:38 85° E 04:21:06 10° N
SJ 16-02 1.3 04:16:46 53° SE 04:17:08 55° ESE 04:21:22 10° NNE
Landsat 4 3.3 04:17:55 71° SSW 04:18:10 77° WSW 04:21:37 10° NNW
Meteor 1-4 Rocket 3.9 04:21:23 22° NE 04:21:23 22° NE 04:22:46 10° NNE
Cosmos 1850 Rocket 4.5 04:18:46 11° SSW 04:23:42 59° WNW 04:28:51 10° N
Cosmos 1346 Rocket 2.6 04:22:18 10° N 04:26:09 72° E 04:26:15 71° E
Cosmos 2315 Rocket 4.0 04:20:17 10° N 04:26:41 88° W 04:29:33 36° S
RESURS DK-1 2.2 04:26:47 10° NNW 04:30:52 80° WSW 04:31:10 73° SSW
ARIANE 5 R/B 4.3 04:31:12 20° ENE 04:31:27 20° ENE 04:34:35 10° NNE
Cosmos 2360 Rocket 2.3 04:26:46 10° NNW 04:32:26 66° ENE 04:34:00 46° SE
SPOT 3 Rocket 3.8 04:32:13 38° SSW 04:34:03 62° W 04:39:10 10° NNW
ATLAS 2AS CENTAUR R/B 2.9 04:28:11 10° NNW 04:34:51 57° NE 04:37:28 35° ESE
Cosmos 1932 4.4 04:31:09 18° SSW 04:36:08 86° ESE 04:42:27 10° NNE
Cosmos 968 Rocket 3.8 04:37:09 24° SW 04:40:12 61° WNW 04:45:20 10° N
MOS 1 Rocket 4.3 04:38:37 31° SSW 04:40:49 48° W 04:46:00 10° NNW
Cosmos 1733 Rocket 3.1 04:37:51 10° NNW 04:42:15 73° W 04:42:49 63° SSW
SL-16 R/B 2.9 04:37:50 10° NW 04:43:14 46° WSW 04:45:05 34° SSW
SeaSat 1 3.4 04:42:03 32° SW 04:43:22 38° WSW 04:47:56 10° NW
Cosmos 1758 4.0 04:41:24 10° NNW 04:45:09 44° W 04:45:30 43° WSW
Cosmos 1455 3.7 04:42:03 10° NNE 04:44:05 24° NE 04:44:05 24° NE
Cosmos 2333 Rocket 2.2 04:40:00 10° NNW 04:45:47 78° ENE 04:47:07 54° SE
Okean 1-7 2.9 04:47:58 73° ENE 04:47:58 73° ENE 04:52:10 10° N
Iridium 51 4.4 04:47:49 80° S 04:48:04 88° W 04:52:26 10° N
USA 281 4.0 04:45:41 29° ESE 04:48:13 40° ENE 04:54:14 10° N
Meteor 2-20 4.4 04:43:04 10° N 04:49:15 84° W 04:51:09 47° S
CZ-2C R/B 4.3 04:50:23 30° E 04:51:42 34° ENE 05:03:47 10° N
GP-B 4.0 04:49:53 10° NNE 04:53:24 37° ENE 04:53:24 37° ENE
Cosmos 1814 Rocket 3.9 04:49:31 10° NNW 04:54:50 73° ENE 04:55:33 63° ESE
Atlas Centaur 2 3.4 04:47:59 10° W 04:55:38 41° SSW 04:56:31 40° S
Cosmos 1908 Rocket 4.2 04:51:53 10° N 04:55:38 44° ENE 04:55:38 44° ENE
Meteor 1-16 Rocket 4.3 05:03:08 10° NNW 05:09:02 75° W 05:10:15 57° SSW
MetOp-A 4.4 05:08:38 50° SW 05:09:25 55° W 05:14:36 10° NNW
Cosmos 1745 Rocket 4.2 05:08:42 51° ESE 05:09:32 55° E 05:15:43 10° NNE
Cosmos 839 Rocket 4.0 05:04:11 10° NNW 05:10:49 73° ENE 05:12:10 55° ESE
Okean 2 3.9 05:11:53 53° WNW 05:11:53 53° WNW 05:15:28 10° N
Cosmos 2333 4.1 05:09:41 10° NNW 05:15:28 78° WSW 05:16:10 68° SSW
ATLAS CENTAUR R/B 4.3 05:16:03 10° WNW 05:17:03 11° NW 05:18:04 10° NNW
ALOS 2 4.3 05:23:09 23° ENE 05:23:09 23° ENE 05:26:17 10° NNE
Cosmos 1386 Rocket 4.4 05:22:18 64° S 05:23:22 84° E 05:29:37 10° N
Nadezhda 1 Rocket 4.0 05:17:27 10° N 05:23:41 63° E 05:24:27 58° ESE
Cosmos 1315 Rocket 4.1 05:24:58 35° WNW 05:24:58 35° WNW 05:28:30 10° N
Cosmos 2322 Rocket 3.3 05:21:00 10° NW 05:25:59 32° WSW 05:26:46 31° WSW
Cosmos 2297 Rocket 3.3 05:29:40 31° E 05:29:40 31° E 05:33:33 10° NE
Cosmos 1953 3.5 05:27:04 10° NNW 05:29:44 39° NW 05:29:44 39° NW
CENTAUR R/B 4.4 05:33:38 13° E 05:33:38 13° E 05:35:00 10° ENE
CZ-3 Stage 3 3.9 04:55:54 10° W 05:32:34 60° SSW 05:35:52 44° SSE
Cosmos 1703 Rocket 4.2 05:32:56 52° WNW 05:32:56 52° WNW 05:37:03 10° N
Meteor 2-5 Rocket 4.3 05:41:48 45° E 05:41:48 45° E 05:47:11 10° NNE
Cosmos 1486 Rocket 4.1 05:46:25 69° NE 05:46:25 69° NE 05:51:03 10° NNE
Cosmos 2242 Rocket 4.2 05:48:16 53° NNE 05:48:16 53° NNE 05:51:49 10° N
BlueWalker 3 3.7 05:49:45 30° NNW 05:49:45 30° NNW 05:52:47 10° NNE
Cosmos 371 Rocket 3.8 05:50:32 51° NE 05:50:32 51° NE 05:54:15 10° NNE
COSMOS 2428 2.7 05:45:19 10° NNW 05:51:00 69° ENE 05:51:11 68° E
Cosmos 2219 Rocket 2.5 05:46:12 10° NNW 05:51:37 52° WSW 05:51:37 52° WSW
SJ 16-02 4.1 05:54:04 10° W 05:55:50 12° WNW 05:57:37 10° NW
H-2A R/B 3.4 05:58:52 49° NNW 05:58:52 49° NNW 06:02:03 10° NNW
ARIANE 5 R/B 4.1 06:08:40 28° WNW 06:08:40 28° WNW 06:11:28 10° NNW
COSMOS 2455 3.0 06:07:47 60° WSW 06:08:37 67° WNW 06:14:38 10° NNE
Cosmos 1709 Rocket 4.0 06:08:22 67° SW 06:09:03 74° W 06:15:26 10° N
NOSS 0 Rocket 4.0 06:03:12 10° NNW 06:09:26 66° ENE 06:10:02 62° E
Spot 4 4.3 06:10:56 58° NW 06:10:56 58° NW 06:14:55 10° NNW
CZ-4C R/B 2.3 06:13:08 56° NNW 06:13:08 56° NNW 06:17:42 10° NNE
Cosmos 2360 Rocket 4.2 06:12:40 10° WNW 06:15:44 15° W 06:15:45 15° W
ATLAS 2AS CENTAUR R/B 3.9 06:20:00 10° WNW 06:24:53 25° WSW 06:24:53 25° WSW
Cosmos 2333 Rocket 4.4 06:26:54 10° WNW 06:29:07 13° W 06:29:07 13° W
Cosmos 2098 Rocket 3.8 06:25:33 10° N 06:32:12 88° E 06:32:30 82° SSE
USA 281 4.0 06:32:33 37° WSW 06:32:38 37° WSW 06:38:39 10° NW
Cosmos 2154 Rocket 4.4 06:39:30 50° E 06:39:45 50° E 06:45:45 10° NNE
Cosmos 332 Rocket 4.3 06:44:02 56° NNE 06:44:02 56° NNE 06:47:54 10° NNE
SL-16 R/B 4.1 06:39:28 10° N 06:43:52 22° NE 06:46:35 16° E
SL-4 R/B 3.6 06:41:25 10° NW 06:45:06 33° NNE 06:45:06 33° NNE
Meteor 1-24 Rocket 4.4 06:50:55 44° W 06:51:11 44° WNW 06:56:38 10° N
Cosmos 2237 Rocket 2.2 06:45:42 10° NNW 06:51:07 80° NNE 06:51:07 80° NNE
Cosmos 2227 Rocket 2.2 06:52:28 81° NNE 06:52:28 81° NNE 06:57:51 10° NNE
Cosmos 773 Rocket 4.5 06:47:22 10° NNW 06:51:29 53° NW 06:51:29 53° NW
H-2A R/B 3.1 06:48:19 10° N 06:51:12 42° N 06:51:12 42° N
Cosmos 1825 4.5 06:56:41 21° N 06:56:41 21° N 06:57:57 10° N
ALOS 2 4.5 07:00:33 22° WNW 07:00:33 22° WNW 07:02:46 10° NW
Cosmos 1980 3.8 06:58:49 10° NNW 07:03:53 65° WNW 07:03:53 65° WNW
GEOS 3 Rocket 3.8 07:01:11 10° NNE 07:06:16 64° NW 07:06:16 64° NW
Okean 2 Rocket 4.1 07:02:04 10° NNW 07:05:12 44° NNW 07:05:12 44° NNW
Cosmos 2297 Rocket 3.4 07:11:26 29° W 07:12:31 31° WNW 07:17:31 10° N
Cosmos 2219 3.2 07:15:09 73° E 07:15:09 73° E 07:20:29 10° NNE
Cosmos 1610 Rocket 4.4 07:14:51 72° SE 07:15:22 77° E 07:21:46 10° N
Cosmos 2181 Rocket 4.3 07:10:13 10° NNW 07:16:08 50° W 07:16:10 50° W
Cosmos 1025 Rocket 3.9 07:17:45 47° NNE 07:17:45 47° NNE 07:20:53 10° N
CENTAUR R/B 2.3 07:20:44 65° W 07:21:11 68° NW 07:27:48 10° NNE
Aureole 1 Rocket 4.5 07:23:52 29° NNE 07:23:52 29° NNE 07:26:03 10° NNE
Cosmos 2074 Rocket 4.2 07:23:12 54° W 07:23:38 55° W 07:29:43 10° N
Helios 1A Rocket 4.3 07:33:25 32° NE 07:33:25 32° NE 07:36:11 10° N
Cosmos 1461 4.5 07:36:27 28° ENE 07:36:27 28° ENE 07:38:33 10° NE
Cosmos 1937 Rocket 4.0 07:38:33 50° E 07:38:33 50° E 07:43:29 10° NNE
Cosmos 1898 Rocket 3.5 07:42:11 76° ENE 07:42:11 76° ENE 07:47:08 10° NNE
Cosmos 2263 Rocket 2.0 07:45:28 84° WSW 07:45:38 86° WNW 07:51:15 10° NNE
Resurs 1-4 Rocket 3.6 07:42:08 10° NE 07:46:27 25° E 07:47:22 24° ESE
Nadezhda 3 Rocket 4.4 07:58:37 10° NNW 08:04:31 45° W 08:04:57 45° WSW
Cosmos 2218 Rocket 4.0 08:03:34 54° SSE 08:04:59 72° E 08:11:10 10° N
Cosmos 1844 Rocket 4.1 08:04:20 23° ESE 08:05:37 25° ESE 08:10:04 10° NE
Cosmos 1869 4.2 08:03:17 10° N 08:06:12 42° NE 08:06:12 42° NE
NOSS 3-2 (A) 3.7 08:06:19 41° W 08:07:17 46° NW 08:12:57 10° NNE
Cosmos 2366 rocket 3.9 08:10:21 57° S 08:11:47 85° E 08:18:04 10° N
Cosmos 1437 Rocket 4.5 08:12:41 24° E 08:12:44 24° E 08:15:51 10° NE
NOSS 3-2 (C) 2.9 08:12:44 75° SSW 08:13:12 85° ESE 08:19:02 10° NNE
In-Cosmos 22 Rocket 4.5 08:16:58 50° WSW 08:17:42 53° WNW 08:23:24 10° N
Cosmos 1544 Rocket 3.7 08:13:24 10° N 08:17:49 64° E 08:18:04 62° ESE
Cosmos 1680 Rocket 4.1 08:12:52 10° N 08:17:58 52° ENE 08:20:14 30° SE
Cosmos 1818 4.3 08:14:42 10° NNW 08:20:03 51° NE 08:24:48 13° SE
Cosmos 2228 3.6 08:17:11 10° N 08:21:22 49° E 08:21:59 45° ESE
USA 267 3.9 08:16:22 10° ENE 08:22:25 39° SE 08:24:01 34° SSE
MSX 3.9 08:18:19 10° NNE 08:24:02 68° ESE 08:25:33 48° SSE
Cosmos 1975 Rocket 4.3 08:27:00 30° WNW 08:27:00 30° WNW 08:30:26 10° NNW
SL-16 R/B 2.4 08:22:45 10° NNW 08:28:15 51° WSW 08:28:24 51° WSW
H-2A R/B 3.2 08:31:59 10° NNE 08:35:54 85° NNW 08:35:54 85° NNW
SL-16 R/B 4.1 08:30:48 10° SE 08:36:17 33° ENE 08:41:45 10° N
Cosmos 2227 Rocket 4.4 08:34:18 10° WNW 08:36:58 13° NW 08:39:41 10° NNW
IDEFIX/ARIANE 42P 2.5 08:31:53 10° N 08:37:09 78° WNW 08:38:13 57° SSW
CZ-2C R/B 2.8 08:37:16 33° SSE 08:39:37 70° ENE 08:44:57 10° N
Cosmos 1943 3.5 08:37:27 10° NNW 08:43:01 63° ENE 08:47:43 15° SE
SL-8 Rocket 4.4 08:41:47 39° WSW 08:43:13 45° WNW 08:49:09 10° N
CZ-2C R/B 3.2 08:37:57 10° NNE 08:43:18 69° E 08:44:53 44° SSE
CZ-2D R/B 2.0 08:42:01 10° NNE 08:47:22 90° ENE 08:48:55 48° SSW
FENGYUN 3A 3.9 08:45:20 10° NNE 08:50:40 62° E 08:52:54 34° SSE
Cosmos 1606 4.0 08:51:42 10° NNW 08:53:51 26° WNW 08:53:51 26° WNW
ASTEX 1 4.3 08:52:22 18° SE 08:55:40 45° E 09:00:17 10° N
Cosmos 1536 Rocket 3.6 08:55:28 55° WSW 08:56:02 61° W 09:00:25 10° N
Cosmos 1867 3.5 09:01:14 43° SW 09:03:05 81° WNW 09:08:36 10° NNE
Cosmos 2239 Rocket 4.4 09:00:58 31° S 09:04:05 84° E 09:10:15 10° N
NPP 4.2 08:59:25 10° N 09:04:33 45° WNW 09:06:15 34° WSW
Orbus 7S? 4.3 09:01:39 10° NNW 09:04:43 50° NE 09:10:24 10° SE
Cosmos 1727 Rocket 4.0 09:00:07 10° N 09:06:28 82° W 09:10:22 25° S
SL-08 R/B 4.5 09:05:17 30° S 09:08:40 89° W 09:14:58 10° N
Iridium 2 4.4 09:09:46 26° E 09:09:49 26° E 09:11:58 10° NNE
ADEOS II 2.0 09:07:37 10° N 09:12:52 80° WNW 09:15:11 35° SSW
Cosmos 2058 4.4 09:12:19 15° SE 09:15:01 31° E 09:18:37 10° NNE
Cosmos 1844 3.7 09:15:24 33° SSW 09:18:09 87° WNW 09:23:59 10° NNE
USA 238 DEB 3.7 09:16:15 30° SW 09:19:20 63° NW 09:25:53 10° NNE
USA 238 3.7 09:16:17 30° SW 09:19:22 63° NW 09:25:57 10° NNE
Cosmos 1000 Rocket 4.5 09:14:15 10° N 09:20:33 89° E 09:25:45 16° S
SAR-Lupe-4 4.2 09:17:38 10° NNE 09:21:06 48° E 09:22:35 28° SSE
Resurs 1-4 Rocket 2.9 09:21:28 10° N 09:26:16 37° WNW 09:28:25 26° WSW
ATLAS 5 CENTAUR R/B 3.3 09:25:49 11° SE 09:27:24 14° ESE 09:29:16 10° ENE
Timation 2 Rocket 4.4 09:23:52 21° S 09:28:29 63° ESE 09:34:51 10° NNE
Cosmos 2263 Rocket 4.4 09:28:02 10° WNW 09:30:21 12° NW 09:32:41 10° NNW
UNK 4.4 09:26:54 10° SSE 09:31:23 54° ENE 09:35:52 10° N
AQUA 4.0 09:31:47 10° N 09:36:24 55° WNW 09:38:45 27° SW
Meteor 1-28 Rocket 3.0 09:35:43 32° S 09:37:09 63° W 09:40:40 10° NNW
SL-24 DEB 4.5 09:38:28 10° N 09:42:52 49° W 09:45:15 25° SW
Cosmos 1544 3.6 09:42:30 19° SSE 09:43:56 35° E 09:46:22 10° NNE
Cosmos 1892 Rocket 3.6 09:42:42 25° SSW 09:45:07 64° W 09:49:31 10° N
Delta 2 Rocket 3.3 09:43:07 24° WSW 09:45:17 55° S 09:49:31 10° ESE
Cosmos 2058 Rocket 3.6 09:42:44 10° N 09:47:07 58° E 09:51:25 10° SSE
Cosmos 1437 Rocket 4.4 09:47:29 17° W 09:48:19 18° WNW 09:51:02 10° NNW
ALOS 2.4 09:44:22 10° N 09:48:53 56° WNW 09:51:42 22° SW
Cosmos 1844 Rocket 3.4 09:45:59 21° WSW 09:49:11 40° WNW 09:54:27 10° N
METEOR-M 4.4 09:48:00 10° NNE 09:53:20 70° ESE 09:58:36 10° S
Cosmos 2298 Rocket 4.4 09:49:11 13° S 09:53:54 61° ESE 09:59:10 10° NNE
BREEZE-M DEB (TANK) 3.7 09:54:25 23° SSW 09:56:28 63° SE 10:05:54 10° NE
Cosmos 1607 4.0 09:53:15 10° NNW 09:59:41 87° ENE 10:05:56 10° SSE
NOSS 2-2 (C) 3.2 10:00:13 18° SSW 10:02:34 56° ESE 10:05:38 10° NE
Cosmos 1605 Rocket 4.0 09:57:24 10° S 10:03:38 90° ENE 10:09:48 10° N
USA 267 3.7 09:59:08 10° NE 10:05:30 56° NW 10:11:21 12° WSW
CZ-4 R/B 3.9 10:05:08 10° NNE 10:10:05 88° WNW 10:15:04 10° SSW
NOSS 2-2 (D) 3.9 10:08:13 12° S 10:11:19 40° ESE 10:14:20 10° NE
Cosmos 2278 Rocket 4.3 10:07:25 10° SSE 10:11:46 23° E 10:16:08 10° NE
NOSS 2-3 (E) 3.9 10:08:40 12° S 10:11:50 45° ESE 10:15:25 10° NE
Cosmos 1626 Rocket 3.7 10:07:30 10° S 10:11:56 77° E 10:16:21 10° N
H-2A R/B 4.0 10:09:11 10° NE 10:13:40 27° E 10:18:01 10° SSE
Alouette 2 Rocket 4.4 10:11:53 15° SW 10:15:30 35° WNW 10:19:06 10° N
Cosmos 1603 4.4 10:11:57 10° NW 10:17:01 33° WSW 10:22:02 10° SSW
NOSS 2-3 (C) 3.7 10:13:54 12° SSW 10:17:11 53° ESE 10:20:50 10° NE
SWAS 4.4 10:14:28 12° SSW 10:18:17 85° ESE 10:22:29 10° NNE
SL-16 R/B 3.1 10:14:00 10° SSW 10:19:42 37° W 10:25:26 10° NNW
CZ-2C R/B 4.4 10:18:44 11° WSW 10:20:22 13° W 10:22:36 10° WNW
IRS-1D 3.9 10:15:17 10° NNE 10:20:25 66° ESE 10:25:25 10° S
Cosmos 1271 Rocket 3.8 10:19:36 10° SSE 10:22:58 39° E 10:26:21 10° NNE
SEDSat Delta rocket 3.6 10:20:59 13° WSW 10:24:03 33° S 10:27:46 10° ESE
CZ-2D R/B 4.2 10:25:05 10° NW 10:26:31 11° WNW 10:27:58 10° WNW
Cosmos 921 Rocket 4.5 10:28:51 10° NW 10:31:38 17° W 10:34:24 10° SW
Envisat 3.5 10:28:24 10° N 10:33:13 46° WNW 10:38:02 10° SW
USA 234 4.2 10:31:50 10° ESE 10:38:09 53° NE 10:44:29 10° NW
Okean 1-7 Rocket 3.6 10:36:14 10° S 10:40:44 86° W 10:45:13 10° N
CZ-2C R/B 2.5 10:38:47 10° N 10:43:14 53° WNW 10:47:41 10° SSW
Cosmos 1812 4.3 10:44:07 10° NW 10:46:23 16° W 10:48:39 10° SW
Cosmos 1238 Rocket 3.5 10:43:57 10° NNW 10:46:37 24° W 10:49:05 10° SW
Cosmos-2242 3.0 10:42:59 10° NNW 10:47:16 69° W 10:51:31 10° S
SWARM A 4.4 10:44:04 10° S 10:47:35 87° W 10:51:09 10° N
Lacrosse 5 3.6 10:44:27 10° S 10:48:40 27° ESE 10:52:55 10° ENE
